| time (UTC) | temp C | wind direction | speed KPH | gust KPH | rain 1hr cm | rain 24hr cm | rain mn cm | humidity % | barometer mb |
| 20260901125246 | 20 | 275 | 17.7 | 27.4 | 0.00 | 0.00 | 0.00 | 54 | 1019.1 |
| 20260901123747 | 20 | 289 | 17.7 | 27.4 | 0.00 | 0.00 | 0.00 | 54 | 1019.1 |
| 20260901122245 | 20 | 286 | 12.9 | 27.4 | 0.00 | 0.00 | 0.00 | 55 | 1018.9 |
| 20260901120745 | 20 | 268 | 17.7 | 32.2 | 0.00 | 0.00 | 0.00 | 60 | 1018.9 |
| 20260901115244 | 20 | 278 | 17.7 | 27.4 | 0.00 | 0.00 | 0.00 | 58 | 1018.8 |
| 20260901113745 | 20 | 267 | 9.7 | 24.1 | 0.00 | 0.00 | 0.00 | 67 | 1018.8 |
| 20260901112244 | 18 | 237 | 12.9 | 27.4 | 0.00 | 0.00 | 0.00 | 72 | 1018.8 |
| 20260901110743 | 18 | 225 | 9.7 | 12.9 | 0.00 | 0.00 | 0.00 | 79 | 1018.9 |
| 20260901105243 | 17 | 241 | 12.9 | 20.9 | 0.00 | 0.00 | 0.00 | 82 | 1019.0 |
| 20260901103742 | 17 | 228 | 12.9 | 20.9 | 0.00 | 0.00 | 0.00 | 83 | 1019.0 |
| 20260901102242 | 17 | 206 | 9.7 | 20.9 | 0.00 | 0.00 | 0.00 | 86 | 1019.0 |
| 20260901100742 | 16 | 208 | 9.7 | 17.7 | 0.00 | 0.00 | 0.00 | 87 | 1019.0 |
| 20260901095241 | 16 | 212 | 12.9 | 17.7 | 0.00 | 0.00 | 0.00 | 86 | 1019.0 |
| 20260901093741 | 17 | 229 | 9.7 | 17.7 | 0.00 | 0.00 | 0.00 | 86 | 1018.9 |
| 20260901092240 | 16 | 227 | 9.7 | 17.7 | 0.00 | 0.00 | 0.00 | 87 | 1018.9 |
| 20260901090740 | 16 | 224 | 9.7 | 17.7 | 0.00 | 0.00 | 0.00 | 87 | 1018.7 |
| 20260901085239 | 16 | 219 | 9.7 | 17.7 | 0.00 | 0.00 | 0.00 | 88 | 1018.6 |
| 20260901083739 | 16 | 224 | 9.7 | 20.9 | 0.00 | 0.00 | 0.00 | 87 | 1018.5 |
| 20260901082238 | 16 | 224 | 9.7 | 20.9 | 0.00 | 0.00 | 0.00 | 87 | 1018.5 |
| 20260901080738 | 16 | 221 | 9.7 | 17.7 | 0.00 | 0.00 | 0.00 | 87 | 1018.3 |
| 20260901075238 | 16 | 226 | 9.7 | 17.7 | 0.00 | 0.00 | 0.00 | 86 | 1018.1 |
| 20260901073738 | 16 | 218 | 9.7 | 17.7 | 0.00 | 0.00 | 0.00 | 86 | 1018.0 |
| 20260901072237 | 15 | 223 | 9.7 | 17.7 | 0.00 | 0.00 | 0.00 | 88 | 1017.9 |
| 20260901070737 | 15 | 224 | 9.7 | 17.7 | 0.00 | 0.00 | 0.00 | 89 | 1017.9 |
| 20260901065236 | 15 | 216 | 6.4 | 12.9 | 0.00 | 0.00 | 0.00 | 91 | 1017.7 |
| 20260901063737 | 15 | 222 | 6.4 | 12.9 | 0.00 | 0.00 | 0.00 | 91 | 1017.7 |
| 20260901062236 | 15 | 214 | 9.7 | 12.9 | 0.00 | 0.00 | 0.00 | 93 | 1017.5 |
| 20260901060736 | 13 | 212 | 6.4 | 12.9 | 0.00 | 0.00 | 0.00 | 93 | 1017.5 |
| 20260901055235 | 13 | 214 | 6.4 | 12.9 | 0.00 | 0.00 | 0.00 | 93 | 1017.5 |
| 20260901053735 | 13 | 226 | 6.4 | 9.7 | 0.00 | 0.00 | 0.00 | 94 | 1017.1 |
| 20260901052234 | 13 | 226 | 6.4 | 9.7 | 0.00 | 0.00 | 0.00 | 94 | 1017.1 |
| 20260901050734 | 13 | 221 | 6.4 | 12.9 | 0.00 | 0.00 | 0.00 | 94 | 1017.0 |
| 20260901045234 | 13 | 226 | 6.4 | 9.7 | 0.00 | 0.00 | 0.00 | 94 | 1016.8 |
| 20260901043734 | 13 | 227 | 6.4 | 12.9 | 0.00 | 0.00 | 0.00 | 94 | 1016.8 |
| 20260901042233 | 13 | 227 | 6.4 | 12.9 | 0.00 | 0.00 | 0.00 | 94 | 1016.6 |
| 20260901040733 | 13 | 228 | 9.7 | 12.9 | 0.00 | 0.00 | 0.00 | 93 | 1016.7 |
| 20260901035230 | 13 | 225 | 9.7 | 12.9 | 0.00 | 0.00 | 0.00 | 93 | 1016.6 |
| 20260901033730 | 13 | 214 | 6.4 | 12.9 | 0.00 | 0.00 | 0.00 | 92 | 1016.4 |
| 20260901032229 | 13 | 217 | 6.4 | 12.9 | 0.00 | 0.00 | 0.00 | 92 | 1016.3 |
| 20260901030729 | 15 | 221 | 6.4 | 12.9 | 0.00 | 0.00 | 0.00 | 91 | 1016.3 |
| 20260901025228 | 13 | 226 | 6.4 | 12.9 | 0.00 | 0.00 | 0.00 | 91 | 1016.3 |
| 20260901023729 | 13 | 226 | 6.4 | 12.9 | 0.00 | 0.00 | 0.00 | 91 | 1016.3 |
| 20260901022228 | 15 | 220 | 9.7 | 17.7 | 0.00 | 0.00 | 0.00 | 90 | 1016.3 |
| 20260901020728 | 15 | 228 | 9.7 | 17.7 | 0.00 | 0.00 | 0.00 | 89 | 1016.2 |
| 20260901015226 | 15 | 220 | 9.7 | 17.7 | 0.00 | 0.00 | 0.00 | 89 | 1016.1 |
| 20260901013726 | 15 | 221 | 9.7 | 17.7 | 0.00 | 0.00 | 0.00 | 89 | 1016.2 |
| 20260901012224 | 15 | 225 | 9.7 | 17.7 | 0.00 | 0.00 | 0.00 | 89 | 1016.0 |
| 20260901010724 | 15 | 220 | 9.7 | 12.9 | 0.00 | 0.00 | 0.00 | 88 | 1015.9 |
| 20260901005224 | 15 | 218 | 9.7 | 17.7 | 0.00 | 0.00 | 0.00 | 88 | 1015.9 |
| 20260901003725 | 15 | 220 | 9.7 | 12.9 | 0.00 | 0.00 | 0.00 | 88 | 1015.8 |
| 20260901002223 | 15 | 221 | 9.7 | 12.9 | 0.00 | 0.00 | 0.00 | 89 | 1015.8 |
| 20260901000723 | 13 | 219 | 9.7 | 12.9 | 0.00 | 0.00 | 0.00 | 89 | 1015.8 |
| 20260831235224 | 13 | 213 | 6.4 | 12.9 | 0.00 | 0.00 | 0.00 | 89 | 1015.8 |
| 20260831233723 | 13 | 218 | 9.7 | 12.9 | 0.00 | 0.00 | 0.00 | 88 | 1015.7 |
| 20260831232222 | 13 | 219 | 6.4 | 12.9 | 0.00 | 0.00 | 0.00 | 87 | 1015.6 |
| 20260831230722 | 13 | 217 | 9.7 | 12.9 | 0.00 | 0.00 | 0.00 | 87 | 1015.5 |
| 20260831225222 | 15 | 227 | 9.7 | 12.9 | 0.00 | 0.00 | 0.00 | 86 | 1015.6 |
| 20260831223723 | 15 | 231 | 9.7 | 17.7 | 0.00 | 0.00 | 0.00 | 85 | 1015.5 |
| 20260831222221 | 15 | 232 | 9.7 | 17.7 | 0.00 | 0.00 | 0.00 | 84 | 1015.5 |
| 20260831220721 | 15 | 235 | 9.7 | 17.7 | 0.00 | 0.00 | 0.00 | 84 | 1015.4 |
| 20260831215221 | 15 | 232 | 9.7 | 12.9 | 0.00 | 0.00 | 0.00 | 85 | 1015.2 |
| 20260831213721 | 15 | 227 | 9.7 | 12.9 | 0.00 | 0.00 | 0.00 | 84 | 1015.2 |
| 20260831212221 | 15 | 217 | 6.4 | 12.9 | 0.00 | 0.00 | 0.00 | 86 | 1014.9 |
| 20260831210721 | 15 | 217 | 6.4 | 12.9 | 0.00 | 0.00 | 0.00 | 86 | 1014.8 |
| 20260831205220 | 15 | 231 | 6.4 | 9.7 | 0.00 | 0.00 | 0.00 | 88 | 1014.6 |
| 20260831203720 | 15 | 239 | 6.4 | 12.9 | 0.00 | 0.00 | 0.00 | 87 | 1014.5 |
| 20260831202220 | 15 | 246 | 9.7 | 17.7 | 0.00 | 0.00 | 0.00 | 86 | 1014.3 |
| 20260831200720 | 15 | 247 | 12.9 | 17.7 | 0.00 | 0.00 | 0.00 | 85 | 1014.1 |
| 20260831195219 | 15 | 248 | 9.7 | 20.9 | 0.00 | 0.00 | 0.00 | 86 | 1013.9 |
| 20260831193720 | 15 | 262 | 12.9 | 20.9 | 0.00 | 0.00 | 0.00 | 84 | 1013.8 |
| 20260831192219 | 15 | 247 | 9.7 | 17.7 | 0.00 | 0.00 | 0.00 | 85 | 1013.7 |
| 20260831190719 | 16 | 248 | 17.7 | 27.4 | 0.03 | 0.00 | 0.00 | 75 | 1013.2 |
| 20260831185218 | 17 | 251 | 17.7 | 27.4 | 0.00 | 0.00 | 0.00 | 67 | 1012.7 |
| 20260831183718 | 17 | 252 | 17.7 | 27.4 | 0.00 | 0.00 | 0.00 | 68 | 1012.6 |
| 20260831182217 | 16 | 248 | 12.9 | 27.4 | 0.00 | 0.00 | 0.00 | 70 | 1012.2 |
| 20260831180717 | 17 | 251 | 17.7 | 27.4 | 0.00 | 0.00 | 0.00 | 68 | 1012.0 |
| 20260831175216 | 17 | 251 | 17.7 | 27.4 | 0.00 | 0.00 | 0.00 | 68 | 1012.0 |
| 20260831173716 | 17 | 249 | 17.7 | 27.4 | 0.00 | 0.00 | 0.00 | 65 | 1011.8 |
| 20260831172215 | 17 | 246 | 17.7 | 27.4 | 0.00 | 0.00 | 0.00 | 67 | 1011.7 |
| 20260831170716 | 17 | 254 | 17.7 | 32.2 | 0.00 | 0.00 | 0.00 | 66 | 1011.4 |
| 20260831165214 | 17 | 262 | 12.9 | 24.1 | 0.00 | 0.00 | 0.00 | 68 | 1011.3 |
| 20260831163714 | 17 | 261 | 17.7 | 24.1 | 0.00 | 0.00 | 0.00 | 71 | 1011.1 |
| 20260831162214 | 17 | 250 | 12.9 | 35.4 | 0.00 | 0.00 | 0.00 | 74 | 1011.0 |
| 20260831160714 | 17 | 235 | 20.9 | 35.4 | 0.00 | 0.00 | 0.00 | 71 | 1010.7 |
| 20260831155213 | 18 | 227 | 20.9 | 32.2 | 0.00 | 0.00 | 0.00 | 69 | 1010.6 |
| 20260831153713 | 18 | 231 | 20.9 | 32.2 | 0.00 | 0.00 | 0.00 | 71 | 1010.4 |
| 20260831152212 | 17 | 224 | 17.7 | 32.2 | 0.00 | 0.00 | 0.00 | 71 | 1010.5 |
| 20260831150712 | 17 | 228 | 17.7 | 24.1 | 0.00 | 0.00 | 0.00 | 73 | 1010.3 |
| 20260831145211 | 15 | 220 | 12.9 | 20.9 | 0.00 | 0.00 | 0.00 | 84 | 1010.1 |
| 20260831143711 | 15 | 218 | 12.9 | 27.4 | 0.00 | 0.00 | 0.00 | 86 | 1010.1 |
| 20260831142210 | 15 | 274 | 20.9 | 32.2 | 0.28 | 0.00 | 0.00 | 84 | 1010.2 |
| 20260831140711 | 16 | 280 | 17.7 | 35.4 | 0.00 | 0.00 | 0.00 | 72 | 1010.3 |
| 20260831135210 | 16 | 293 | 24.1 | 41.8 | 0.00 | 0.00 | 0.00 | 68 | 1009.9 |
| 20260831133710 | 17 | 238 | 27.4 | 41.8 | 0.03 | 0.00 | 0.00 | 63 | 1009.6 |
| 20260831132209 | 20 | 236 | 27.4 | 41.8 | 0.00 | 0.00 | 0.00 | 53 | 1009.0 |
| 20260831130709 | 20 | 226 | 24.1 | 41.8 | 0.00 | 0.00 | 0.00 | 52 | 1008.8 |